Weather in Ishim

Russia / Kemerovo Oblast     56°30′54″N   86°13′20″E
temp.,
°C
wind,
m/s
gust,
m/s
humid.,
%
clouds,
%
prec.,
mm/h
press.,
hPa
HPBL,
m
20 june, sun
sun2001:00+14wnw4698100 4.4 1001523
04:00+11w4898100 1.6 1002521
07:00+9wnw3696100 1.6 1004457
10:00+10wnw3693100 0.3 1004547
13:00+10wsw2591100 1.1 1006439
16:00+12sw247992 0.9 1006780
19:00+13ssw3567100 0.9 1007677
22:00+11ssw3871100 0.0 1008479
21 june, mon
mon2101:00+8s3108358 0.0 1009301
04:00+7s2894100 0.0 1009218
07:00+9s368294 0.0 1009285
10:00+14s4561100 0.0 1009832
13:00+18sse34445 0.0 10081972
16:00+18sse2444100 0.0 10082122
19:00+15sw3670100 0.3 1009550
22:00+10se0192100 0.3 100913
22 june, tue
tue2201:00+10se239698 0.4 100968
04:00+8sse119786 0.0 100813
07:00+11sse129325 0.0 1007183
10:00+14sw117594 0.1 1007759
13:00+15ese2284100 1.5 1007513
16:00+12se2497100 2.0 1007151
19:00+11ssw1498100 6.5 1007190
22:00+10ssw4897100 4.4 1007319
23 june, wed
wed2301:00+9s4998100 4.6 1006417
04:00+10sw71397100 2.4 1005821
07:00+10ssw61298100 3.9 1007720
10:00+9ssw61297100 0.3 1008551
13:00+11ssw5985100 0.3 1010751
16:00+12sw577898 0.0 1010671
19:00+15s356736 0.1 10101076
22:00+10s22925 0.3 101038
24 june, thu
thu2401:00+8s22965 0.3 101022
04:00+7s11966 0.0 101011
07:00+10se239060 0.0 1010161
10:00+15e2468100 0.2 1009752
13:00+14ene3588100 1.8 1009328
16:00+17e1377100 1.8 1009612
19:00+14s2491100 4.3 100982
22:00+11wsw2498100 4.3 1010118